owner,sensor,date,latitude,longitude,vertical_datum,wind_speed,wind_to_direction,wind_speed_of_gust,qcFlag 
TCOON,ioos:station:TCOON:013:1,2017-11-01T00:00:00Z,27.4847,-97.3181,0.0,4.4,143.0,5.5,'11111222,11111222,11111222' 
TCOON,ioos:station:TCOON:013:1,2017-11-01T00:06:00Z,27.4847,-97.3181,0.0,3.9,139.0,5.2,'11111222,11111222,11111222' 
TCOON,ioos:station:TCOON:013:1,2017-11-01T00:12:00Z,27.4847,-97.3181,0.0,3.7,136.0,4.3,'11111222,11111222,11111222' 
TCOON,ioos:station:TCOON:013:1,2017-11-01T00:18:00Z,27.4847,-97.3181,0.0,3.8,131.0,4.6,'1111122,1111122,1111122' 
TCOON,ioos:station:TCOON:013:1,2017-11-01T00:24:00Z,27.4847,-97.3181,0.0,3.6,132.0,4.4,'11111222,11111222,11111222' 
TCOON,ioos:station:TCOON:013:1,2017-11-01T00:30:00Z,27.4847,-97.3181,0.0,3.8,133.0,4.9,'11111222,11111222,11111222' 
TCOON,ioos:station:TCOON:013:1,2017-11-01T00:36:00Z,27.4847,-97.3181,0.0,4.1,139.0,5.3,'11111222,11111222,11111222' 
TCOON,ioos:station:TCOON:013:1,2017-11-01T00:42:00Z,27.4847,-97.3181,0.0,4.0,142.0,5.2,'11111222,11111222,11111222' 
TCOON,ioos:station:TCOON:013:1,2017-11-01T00:48:00Z,27.4847,-97.3181,0.0,3.3,142.0,4.7,'11111222,11111222,11111222' 
TCOON,ioos:station:TCOON:013:1,2017-11-01T00:54:00Z,27.4847,-97.3181,0.0,4.1,146.0,4.7,'11111222,11111222,11111222' 
TCOON,ioos:station:TCOON:013:1,2017-11-01T01:00:00Z,27.4847,-97.3181,0.0,4.3,142.0,5.1,'11111222,11111222,11111222' 
TCOON,ioos:station:TCOON:013:1,2017-11-01T01:06:00Z,27.4847,-97.3181,0.0,3.9,137.0,5.2,'11111222,11111222,11111222' 
TCOON,ioos:station:TCOON:013:1,2017-11-01T01:12:00Z,27.4847,-97.3181,0.0,4.0,139.0,5.4,'11111222,11111222,11111222' 
TCOON,ioos:station:TCOON:013:1,2017-11-01T01:18:00Z,27.4847,-97.3181,0.0,4.3,140.0,5.8,'1111122,1111122,1111122' 
TCOON,ioos:station:TCOON:013:1,2017-11-01T01:24:00Z,27.4847,-97.3181,0.0,4.2,145.0,5.8,'11111222,11111222,11111222' 
TCOON,ioos:station:TCOON:013:1,2017-11-01T01:30:00Z,27.4847,-97.3181,0.0,4.9,143.0,5.8,'11111222,11111222,11111222' 
TCOON,ioos:station:TCOON:013:1,2017-11-01T01:36:00Z,27.4847,-97.3181,0.0,4.1,148.0,4.9,'11111222,11111222,11111222' 
TCOON,ioos:station:TCOON:013:1,2017-11-01T01:42:00Z,27.4847,-97.3181,0.0,4.3,146.0,4.9,'11111222,11111222,11111222' 
TCOON,ioos:station:TCOON:013:1,2017-11-01T01:48:00Z,27.4847,-97.3181,0.0,4.4,145.0,5.2,'11111222,11111222,11111222' 
TCOON,ioos:station:TCOON:013:1,2017-11-01T01:54:00Z,27.4847,-97.3181,0.0,4.9,146.0,6.5,'11111222,11111222,11111222' 
TCOON,ioos:station:TCOON:013:1,2017-11-01T02:00:00Z,27.4847,-97.3181,0.0,4.9,148.0,6.2,'11111222,11111222,11111222' 
TCOON,ioos:station:TCOON:013:1,2017-11-01T02:06:00Z,27.4847,-97.3181,0.0,5.1,150.0,5.9,'11111222,11111222,11111222' 
TCOON,ioos:station:TCOON:013:1,2017-11-01T02:12:00Z,27.4847,-97.3181,0.0,5.0,152.0,6.5,'11111222,11111222,11111222' 
TCOON,ioos:station:TCOON:013:1,2017-11-01T02:18:00Z,27.4847,-97.3181,0.0,5.2,152.0,6.2,'1111122,1111122,1111122' 
TCOON,ioos:station:TCOON:013:1,2017-11-01T02:24:00Z,27.4847,-97.3181,0.0,3.7,161.0,5.3,'11111222,11111222,11111222' 
TCOON,ioos:station:TCOON:013:1,2017-11-01T02:30:00Z,27.4847,-97.3181,0.0,4.7,161.0,6.4,'11111222,11111222,11111222' 
TCOON,ioos:station:TCOON:013:1,2017-11-01T02:36:00Z,27.4847,-97.3181,0.0,5.0,158.0,6.4,'11111222,11111222,11111222' 
TCOON,ioos:station:TCOON:013:1,2017-11-01T02:42:00Z,27.4847,-97.3181,0.0,4.9,158.0,5.8,'11111222,11111222,11111222' 
TCOON,ioos:station:TCOON:013:1,2017-11-01T02:48:00Z,27.4847,-97.3181,0.0,5.0,159.0,6.0,'11111222,11111222,11111222' 
TCOON,ioos:station:TCOON:013:1,2017-11-01T02:54:00Z,27.4847,-97.3181,0.0,4.2,162.0,5.8,'11111222,11111222,11111222' 
TCOON,ioos:station:TCOON:013:1,2017-11-01T03:00:00Z,27.4847,-97.3181,0.0,3.7,163.0,4.9,'11111222,11111222,11111222' 
TCOON,ioos:station:TCOON:013:1,2017-11-01T03:06:00Z,27.4847,-97.3181,0.0,3.9,168.0,4.7,'11111222,11111222,11111222' 
TCOON,ioos:station:TCOON:013:1,2017-11-01T03:12:00Z,27.4847,-97.3181,0.0,3.7,173.0,5.1,'11111222,11111222,11111222' 
TCOON,ioos:station:TCOON:013:1,2017-11-01T03:18:00Z,27.4847,-97.3181,0.0,4.8,170.0,5.6,'11111222,11111222,11111222' 
TCOON,ioos:station:TCOON:013:1,2017-11-01T03:24:00Z,27.4847,-97.3181,0.0,5.9,166.0,6.7,'1111122,1111122,1111122' 
TCOON,ioos:station:TCOON:013:1,2017-11-01T03:30:00Z,27.4847,-97.3181,0.0,5.3,167.0,6.4,'11111222,11111222,11111222' 
TCOON,ioos:station:TCOON:013:1,2017-11-01T03:36:00Z,27.4847,-97.3181,0.0,5.4,168.0,6.4,'11111222,11111222,11111222' 
TCOON,ioos:station:TCOON:013:1,2017-11-01T03:42:00Z,27.4847,-97.3181,0.0,5.2,169.0,6.7,'11111222,11111222,11111222' 
TCOON,ioos:station:TCOON:013:1,2017-11-01T03:48:00Z,27.4847,-97.3181,0.0,4.7,176.0,5.9,'11111222,11111222,11111222' 
TCOON,ioos:station:TCOON:013:1,2017-11-01T03:54:00Z,27.4847,-97.3181,0.0,3.9,193.0,4.9,'11111222,11111222,11111222' 
TCOON,ioos:station:TCOON:013:1,2017-11-01T04:00:00Z,27.4847,-97.3181,0.0,3.1,196.0,4.0,'11111222,11111222,11111222' 
TCOON,ioos:station:TCOON:013:1,2017-11-01T04:06:00Z,27.4847,-97.3181,0.0,3.2,200.0,3.4,'11111222,11111222,11111222' 
TCOON,ioos:station:TCOON:013:1,2017-11-01T04:12:00Z,27.4847,-97.3181,0.0,3.5,203.0,3.9,'11111222,11111222,11111222' 
TCOON,ioos:station:TCOON:013:1,2017-11-01T04:18:00Z,27.4847,-97.3181,0.0,3.4,213.0,3.9,'1111122,1111122,1111122' 
TCOON,ioos:station:TCOON:013:1,2017-11-01T04:24:00Z,27.4847,-97.3181,0.0,3.4,212.0,3.8,'11111222,11111222,11111222' 
TCOON,ioos:station:TCOON:013:1,2017-11-01T04:30:00Z,27.4847,-97.3181,0.0,3.2,201.0,3.7,'11111222,11111222,11111222' 
TCOON,ioos:station:TCOON:013:1,2017-11-01T04:36:00Z,27.4847,-97.3181,0.0,3.4,207.0,3.7,'11111222,11111222,11111222' 
TCOON,ioos:station:TCOON:013:1,2017-11-01T04:42:00Z,27.4847,-97.3181,0.0,3.2,207.0,3.6,'11111222,11111222,11111222' 
TCOON,ioos:station:TCOON:013:1,2017-11-01T04:48:00Z,27.4847,-97.3181,0.0,3.1,203.0,3.4,'11111222,11111222,11111222' 
TCOON,ioos:station:TCOON:013:1,2017-11-01T04:54:00Z,27.4847,-97.3181,0.0,3.1,200.0,3.6,'11111222,11111222,11111222' 
TCOON,ioos:station:TCOON:013:1,2017-11-01T05:00:00Z,27.4847,-97.3181,0.0,2.8,189.0,3.2,'11111222,11111222,11111222' 
TCOON,ioos:station:TCOON:013:1,2017-11-01T05:06:00Z,27.4847,-97.3181,0.0,2.5,194.0,3.2,'11111222,11111222,11111222' 
TCOON,ioos:station:TCOON:013:1,2017-11-01T05:12:00Z,27.4847,-97.3181,0.0,2.4,199.0,2.8,'11111222,11111222,11111222' 
TCOON,ioos:station:TCOON:013:1,2017-11-01T05:18:00Z,27.4847,-97.3181,0.0,2.6,203.0,2.9,'1111122,1111122,1111122' 
TCOON,ioos:station:TCOON:013:1,2017-11-01T05:24:00Z,27.4847,-97.3181,0.0,3.2,197.0,3.6,'11111222,11111222,11111222' 
TCOON,ioos:station:TCOON:013:1,2017-11-01T05:30:00Z,27.4847,-97.3181,0.0,3.0,194.0,3.5,'11111222,11111222,11111222' 
TCOON,ioos:station:TCOON:013:1,2017-11-01T05:36:00Z,27.4847,-97.3181,0.0,3.8,200.0,4.3,'11111222,11111222,11111222' 
TCOON,ioos:station:TCOON:013:1,2017-11-01T05:42:00Z,27.4847,-97.3181,0.0,4.1,193.0,4.6,'11111222,11111222,11111222' 
TCOON,ioos:station:TCOON:013:1,2017-11-01T05:48:00Z,27.4847,-97.3181,0.0,4.9,191.0,5.5,'11111222,11111222,11111222' 
TCOON,ioos:station:TCOON:013:1,2017-11-01T05:54:00Z,27.4847,-97.3181,0.0,5.0,193.0,5.8,'11111222,11111222,11111222' 
TCOON,ioos:station:TCOON:013:1,2017-11-01T06:00:00Z,27.4847,-97.3181,0.0,4.4,197.0,5.1,'11111222,11111222,11111222' 
TCOON,ioos:station:TCOON:013:1,2017-11-01T06:06:00Z,27.4847,-97.3181,0.0,4.5,194.0,5.1,'11111222,11111222,11111222' 
TCOON,ioos:station:TCOON:013:1,2017-11-01T06:12:00Z,27.4847,-97.3181,0.0,3.9,197.0,4.9,'11111222,11111222,11111222' 
TCOON,ioos:station:TCOON:013:1,2017-11-01T06:18:00Z,27.4847,-97.3181,0.0,3.9,202.0,4.5,'1111122,1111122,1111122' 
TCOON,ioos:station:TCOON:013:1,2017-11-01T06:24:00Z,27.4847,-97.3181,0.0,3.8,204.0,4.2,'11111222,11111222,11111222' 
TCOON,ioos:station:TCOON:013:1,2017-11-01T06:30:00Z,27.4847,-97.3181,0.0,3.9,205.0,4.3,'11111222,11111222,11111222' 
TCOON,ioos:station:TCOON:013:1,2017-11-01T06:36:00Z,27.4847,-97.3181,0.0,3.9,214.0,4.3,'11111222,11111222,11111222' 
TCOON,ioos:station:TCOON:013:1,2017-11-01T06:42:00Z,27.4847,-97.3181,0.0,3.8,233.0,4.2,'11111222,11111222,11111222' 
TCOON,ioos:station:TCOON:013:1,2017-11-01T06:48:00Z,27.4847,-97.3181,0.0,5.6,278.0,6.2,'11111222,11111222,11111222' 
TCOON,ioos:station:TCOON:013:1,2017-11-01T06:54:00Z,27.4847,-97.3181,0.0,5.1,276.0,5.4,'11111222,11111222,11111222' 
TCOON,ioos:station:TCOON:013:1,2017-11-01T07:00:00Z,27.4847,-97.3181,0.0,4.2,277.0,4.8,'11111222,11111222,11111222' 
TCOON,ioos:station:TCOON:013:1,2017-11-01T07:06:00Z,27.4847,-97.3181,0.0,4.3,284.0,4.7,'11111222,11111222,11111222' 
TCOON,ioos:station:TCOON:013:1,2017-11-01T07:12:00Z,27.4847,-97.3181,0.0,4.0,288.0,5.0,'11111222,11111222,11111222' 
TCOON,ioos:station:TCOON:013:1,2017-11-01T07:18:00Z,27.4847,-97.3181,0.0,3.9,293.0,4.4,'1111122,1111122,1111122' 
TCOON,ioos:station:TCOON:013:1,2017-11-01T07:24:00Z,27.4847,-97.3181,0.0,4.2,296.0,4.6,'11111222,11111222,11111222' 
TCOON,ioos:station:TCOON:013:1,2017-11-01T07:30:00Z,27.4847,-97.3181,0.0,3.9,295.0,4.8,'11111222,11111222,11111222' 
TCOON,ioos:station:TCOON:013:1,2017-11-01T07:36:00Z,27.4847,-97.3181,0.0,3.3,297.0,3.9,'11111222,11111222,11111222' 
TCOON,ioos:station:TCOON:013:1,2017-11-01T07:42:00Z,27.4847,-97.3181,0.0,3.1,295.0,3.5,'11111222,11111222,11111222' 
TCOON,ioos:station:TCOON:013:1,2017-11-01T07:48:00Z,27.4847,-97.3181,0.0,2.9,295.0,3.5,'11111222,11111222,11111222' 
TCOON,ioos:station:TCOON:013:1,2017-11-01T07:54:00Z,27.4847,-97.3181,0.0,3.0,305.0,3.3,'11111222,11111222,11111222' 
TCOON,ioos:station:TCOON:013:1,2017-11-01T08:00:00Z,27.4847,-97.3181,0.0,2.9,296.0,3.2,'11111222,11111222,11111222' 
TCOON,ioos:station:TCOON:013:1,2017-11-01T08:06:00Z,27.4847,-97.3181,0.0,2.8,300.0,3.2,'11111222,11111222,11111222' 
TCOON,ioos:station:TCOON:013:1,2017-11-01T08:12:00Z,27.4847,-97.3181,0.0,2.9,298.0,3.5,'11111222,11111222,11111222' 
TCOON,ioos:station:TCOON:013:1,2017-11-01T08:18:00Z,27.4847,-97.3181,0.0,2.7,294.0,3.1,'1111122,1111122,1111122' 
TCOON,ioos:station:TCOON:013:1,2017-11-01T08:24:00Z,27.4847,-97.3181,0.0,3.7,291.0,4.1,'11111222,11111222,11111222' 
TCOON,ioos:station:TCOON:013:1,2017-11-01T08:30:00Z,27.4847,-97.3181,0.0,3.5,297.0,3.9,'11111222,11111222,11111222' 
TCOON,ioos:station:TCOON:013:1,2017-11-01T08:36:00Z,27.4847,-97.3181,0.0,3.2,297.0,3.7,'11111222,11111222,11111222' 
TCOON,ioos:station:TCOON:013:1,2017-11-01T08:42:00Z,27.4847,-97.3181,0.0,3.2,295.0,3.6,'11111222,11111222,11111222' 
TCOON,ioos:station:TCOON:013:1,2017-11-01T08:48:00Z,27.4847,-97.3181,0.0,3.5,295.0,4.1,'11111222,11111222,11111222' 
TCOON,ioos:station:TCOON:013:1,2017-11-01T08:54:00Z,27.4847,-97.3181,0.0,3.3,297.0,3.8,'11111222,11111222,11111222' 
TCOON,ioos:station:TCOON:013:1,2017-11-01T09:00:00Z,27.4847,-97.3181,0.0,3.2,297.0,3.8,'11111222,11111222,11111222' 
TCOON,ioos:station:TCOON:013:1,2017-11-01T09:06:00Z,27.4847,-97.3181,0.0,3.3,293.0,3.8,'11111222,11111222,11111222' 
TCOON,ioos:station:TCOON:013:1,2017-11-01T09:12:00Z,27.4847,-97.3181,0.0,2.8,297.0,3.3,'11111222,11111222,11111222' 
TCOON,ioos:station:TCOON:013:1,2017-11-01T09:18:00Z,27.4847,-97.3181,0.0,3.4,299.0,3.7,'1111122,1111122,1111122' 
TCOON,ioos:station:TCOON:013:1,2017-11-01T09:24:00Z,27.4847,-97.3181,0.0,2.6,286.0,3.6,'11111222,11111222,11111222' 
TCOON,ioos:station:TCOON:013:1,2017-11-01T09:30:00Z,27.4847,-97.3181,0.0,2.6,294.0,3.2,'11111222,11111222,11111222' 
TCOON,ioos:station:TCOON:013:1,2017-11-01T09:36:00Z,27.4847,-97.3181,0.0,2.1,287.0,2.8,'11111222,11111222,11111222' 
TCOON,ioos:station:TCOON:013:1,2017-11-01T09:42:00Z,27.4847,-97.3181,0.0,2.3,283.0,2.6,'11111222,11111222,11111222' 
TCOON,ioos:station:TCOON:013:1,2017-11-01T09:48:00Z,27.4847,-97.3181,0.0,2.7,278.0,2.9,'11111222,11111222,11111222' 
TCOON,ioos:station:TCOON:013:1,2017-11-01T09:54:00Z,27.4847,-97.3181,0.0,3.1,291.0,3.5,'11111222,11111222,11111222' 
TCOON,ioos:station:TCOON:013:1,2017-11-01T10:00:00Z,27.4847,-97.3181,0.0,3.1,295.0,3.7,'11111222,11111222,11111222' 
TCOON,ioos:station:TCOON:013:1,2017-11-01T10:06:00Z,27.4847,-97.3181,0.0,2.8,286.0,3.4,'11111222,11111222,11111222' 
TCOON,ioos:station:TCOON:013:1,2017-11-01T10:12:00Z,27.4847,-97.3181,0.0,3.0,288.0,3.3,'11111222,11111222,11111222' 
TCOON,ioos:station:TCOON:013:1,2017-11-01T10:18:00Z,27.4847,-97.3181,0.0,2.8,298.0,3.2,'1111122,1111122,1111122' 
TCOON,ioos:station:TCOON:013:1,2017-11-01T10:24:00Z,27.4847,-97.3181,0.0,3.1,291.0,3.4,'11111222,11111222,11111222' 
TCOON,ioos:station:TCOON:013:1,2017-11-01T10:30:00Z,27.4847,-97.3181,0.0,3.0,292.0,3.2,'11111222,11111222,11111222' 
TCOON,ioos:station:TCOON:013:1,2017-11-01T10:36:00Z,27.4847,-97.3181,0.0,2.8,298.0,3.0,'11111222,11111222,11111222' 
TCOON,ioos:station:TCOON:013:1,2017-11-01T10:42:00Z,27.4847,-97.3181,0.0,2.9,286.0,3.4,'11111222,11111222,11111222' 
TCOON,ioos:station:TCOON:013:1,2017-11-01T10:48:00Z,27.4847,-97.3181,0.0,3.2,292.0,3.6,'11111222,11111222,11111222' 
TCOON,ioos:station:TCOON:013:1,2017-11-01T10:54:00Z,27.4847,-97.3181,0.0,3.0,294.0,3.6,'11111222,11111222,11111222' 
TCOON,ioos:station:TCOON:013:1,2017-11-01T11:00:00Z,27.4847,-97.3181,0.0,2.7,290.0,3.2,'11111222,11111222,11111222' 
TCOON,ioos:station:TCOON:013:1,2017-11-01T11:06:00Z,27.4847,-97.3181,0.0,2.8,289.0,3.2,'11111222,11111222,11111222' 
TCOON,ioos:station:TCOON:013:1,2017-11-01T11:12:00Z,27.4847,-97.3181,0.0,2.8,284.0,3.4,'11111222,11111222,11111222' 
TCOON,ioos:station:TCOON:013:1,2017-11-01T11:18:00Z,27.4847,-97.3181,0.0,2.8,285.0,3.3,'1111122,1111122,1111122' 
TCOON,ioos:station:TCOON:013:1,2017-11-01T11:24:00Z,27.4847,-97.3181,0.0,2.7,277.0,3.1,'11111222,11111222,11111222' 
TCOON,ioos:station:TCOON:013:1,2017-11-01T11:30:00Z,27.4847,-97.3181,0.0,2.6,282.0,3.0,'11111222,11111222,11111222' 
TCOON,ioos:station:TCOON:013:1,2017-11-01T11:36:00Z,27.4847,-97.3181,0.0,2.5,274.0,2.9,'11111222,11111222,11111222' 
TCOON,ioos:station:TCOON:013:1,2017-11-01T11:42:00Z,27.4847,-97.3181,0.0,1.9,260.0,2.7,'11111222,11111222,11111222' 
TCOON,ioos:station:TCOON:013:1,2017-11-01T11:48:00Z,27.4847,-97.3181,0.0,2.2,257.0,2.6,'11111222,11111222,11111222' 
TCOON,ioos:station:TCOON:013:1,2017-11-01T11:54:00Z,27.4847,-97.3181,0.0,2.0,259.0,2.5,'11111222,11111222,11111222' 
TCOON,ioos:station:TCOON:013:1,2017-11-01T12:00:00Z,27.4847,-97.3181,0.0,1.9,255.0,2.3,'11111222,11111222,11111222' 
TCOON,ioos:station:TCOON:013:1,2017-11-01T12:06:00Z,27.4847,-97.3181,0.0,1.9,237.0,2.3,'11111222,11111222,11111222' 
TCOON,ioos:station:TCOON:013:1,2017-11-01T12:12:00Z,27.4847,-97.3181,0.0,2.1,248.0,2.4,'11111222,11111222,11111222' 
TCOON,ioos:station:TCOON:013:1,2017-11-01T12:18:00Z,27.4847,-97.3181,0.0,2.2,250.0,2.4,'1111122,1111122,1111122' 
TCOON,ioos:station:TCOON:013:1,2017-11-01T12:24:00Z,27.4847,-97.3181,0.0,4.9,283.0,5.8,'11111222,11111222,11111222' 
TCOON,ioos:station:TCOON:013:1,2017-11-01T12:30:00Z,27.4847,-97.3181,0.0,4.3,289.0,4.8,'11111222,11111222,11111222' 
TCOON,ioos:station:TCOON:013:1,2017-11-01T12:36:00Z,27.4847,-97.3181,0.0,4.5,294.0,5.3,'11111222,11111222,11111222' 
TCOON,ioos:station:TCOON:013:1,2017-11-01T12:42:00Z,27.4847,-97.3181,0.0,4.0,295.0,4.7,'11111222,11111222,11111222' 
TCOON,ioos:station:TCOON:013:1,2017-11-01T12:48:00Z,27.4847,-97.3181,0.0,3.8,304.0,4.5,'11111222,11111222,11111222' 
TCOON,ioos:station:TCOON:013:1,2017-11-01T12:54:00Z,27.4847,-97.3181,0.0,3.9,303.0,4.4,'11111222,11111222,11111222' 
TCOON,ioos:station:TCOON:013:1,2017-11-01T13:00:00Z,27.4847,-97.3181,0.0,3.9,314.0,4.7,'11111222,11111222,11111222' 
TCOON,ioos:station:TCOON:013:1,2017-11-01T13:06:00Z,27.4847,-97.3181,0.0,3.9,314.0,4.5,'11111222,11111222,11111222' 
TCOON,ioos:station:TCOON:013:1,2017-11-01T13:12:00Z,27.4847,-97.3181,0.0,4.9,323.0,5.4,'11111222,11111222,11111222' 
TCOON,ioos:station:TCOON:013:1,2017-11-01T13:18:00Z,27.4847,-97.3181,0.0,4.9,323.0,5.4,'1111122,1111122,1111122' 
TCOON,ioos:station:TCOON:013:1,2017-11-01T13:24:00Z,27.4847,-97.3181,0.0,4.6,331.0,5.4,'11111222,11111222,11111222' 
TCOON,ioos:station:TCOON:013:1,2017-11-01T13:30:00Z,27.4847,-97.3181,0.0,4.1,332.0,4.8,'11111222,11111222,11111222' 
TCOON,ioos:station:TCOON:013:1,2017-11-01T13:36:00Z,27.4847,-97.3181,0.0,3.6,325.0,4.2,'11111222,11111222,11111222' 
TCOON,ioos:station:TCOON:013:1,2017-11-01T13:42:00Z,27.4847,-97.3181,0.0,3.2,326.0,4.0,'11111222,11111222,11111222' 
TCOON,ioos:station:TCOON:013:1,2017-11-01T13:48:00Z,27.4847,-97.3181,0.0,2.4,321.0,3.5,'11111222,11111222,11111222' 
TCOON,ioos:station:TCOON:013:1,2017-11-01T13:54:00Z,27.4847,-97.3181,0.0,2.7,310.0,3.1,'11111222,11111222,11111222' 
TCOON,ioos:station:TCOON:013:1,2017-11-01T14:00:00Z,27.4847,-97.3181,0.0,2.6,313.0,2.9,'11111222,11111222,11111222' 
TCOON,ioos:station:TCOON:013:1,2017-11-01T14:06:00Z,27.4847,-97.3181,0.0,2.3,317.0,2.8,'11111222,11111222,11111222' 
TCOON,ioos:station:TCOON:013:1,2017-11-01T14:12:00Z,27.4847,-97.3181,0.0,2.6,322.0,3.4,'11111222,11111222,11111222' 
TCOON,ioos:station:TCOON:013:1,2017-11-01T14:18:00Z,27.4847,-97.3181,0.0,2.4,321.0,2.8,'1111122,1111122,1111122' 
TCOON,ioos:station:TCOON:013:1,2017-11-01T14:24:00Z,27.4847,-97.3181,0.0,2.5,322.0,2.6,'11111222,11111222,11111222' 
TCOON,ioos:station:TCOON:013:1,2017-11-01T14:30:00Z,27.4847,-97.3181,0.0,1.8,327.0,3.0,'11111222,11111222,11111222' 
TCOON,ioos:station:TCOON:013:1,2017-11-01T14:36:00Z,27.4847,-97.3181,0.0,2.3,334.0,2.6,'11111222,11111222,11111222' 
TCOON,ioos:station:TCOON:013:1,2017-11-01T14:42:00Z,27.4847,-97.3181,0.0,2.2,337.0,2.8,'11111222,11111222,11111222' 
TCOON,ioos:station:TCOON:013:1,2017-11-01T14:48:00Z,27.4847,-97.3181,0.0,2.1,344.0,2.6,'11111222,11111222,11111222' 
TCOON,ioos:station:TCOON:013:1,2017-11-01T14:54:00Z,27.4847,-97.3181,0.0,2.3,321.0,2.5,'11111222,11111222,11111222' 
TCOON,ioos:station:TCOON:013:1,2017-11-01T15:00:00Z,27.4847,-97.3181,0.0,1.9,319.0,2.5,'11111222,11111222,11111222' 
TCOON,ioos:station:TCOON:013:1,2017-11-01T15:06:00Z,27.4847,-97.3181,0.0,1.8,343.0,2.3,'11111222,11111222,11111222' 
TCOON,ioos:station:TCOON:013:1,2017-11-01T15:12:00Z,27.4847,-97.3181,0.0,1.8,330.0,2.3,'11111222,11111222,11111222' 
TCOON,ioos:station:TCOON:013:1,2017-11-01T15:18:00Z,27.4847,-97.3181,0.0,1.6,324.0,2.0,'11111222,11111222,11111222' 
TCOON,ioos:station:TCOON:013:1,2017-11-01T15:24:00Z,27.4847,-97.3181,0.0,1.6,318.0,1.9,'1111122,1111122,1111122' 
TCOON,ioos:station:TCOON:013:1,2017-11-01T15:30:00Z,27.4847,-97.3181,0.0,1.6,323.0,2.0,'11111222,11111222,11111222' 
TCOON,ioos:station:TCOON:013:1,2017-11-01T15:36:00Z,27.4847,-97.3181,0.0,1.2,337.0,1.8,'11111222,11111222,11111222' 
TCOON,ioos:station:TCOON:013:1,2017-11-01T15:42:00Z,27.4847,-97.3181,0.0,1.0,339.0,1.6,'11111222,11111222,11111222' 
TCOON,ioos:station:TCOON:013:1,2017-11-01T15:48:00Z,27.4847,-97.3181,0.0,0.7,340.0,1.6,'11111222,11111222,11111222' 
TCOON,ioos:station:TCOON:013:1,2017-11-01T15:54:00Z,27.4847,-97.3181,0.0,1.3,318.0,1.6,'11111222,11111222,11111222' 
TCOON,ioos:station:TCOON:013:1,2017-11-01T16:00:00Z,27.4847,-97.3181,0.0,1.4,316.0,1.9,'11111222,11111222,11111222' 
TCOON,ioos:station:TCOON:013:1,2017-11-01T16:06:00Z,27.4847,-97.3181,0.0,1.6,324.0,1.8,'11111222,11111222,11111222' 
TCOON,ioos:station:TCOON:013:1,2017-11-01T16:12:00Z,27.4847,-97.3181,0.0,1.8,325.0,2.3,'11111222,11111222,11111222' 
TCOON,ioos:station:TCOON:013:1,2017-11-01T16:18:00Z,27.4847,-97.3181,0.0,1.6,333.0,1.9,'1111122,1111122,1111122' 
TCOON,ioos:station:TCOON:013:1,2017-11-01T16:24:00Z,27.4847,-97.3181,0.0,1.0,352.0,1.6,'11111222,11111222,11111222' 
TCOON,ioos:station:TCOON:013:1,2017-11-01T16:30:00Z,27.4847,-97.3181,0.0,1.0,9.0,1.3,'11111222,11111222,11111222' 
TCOON,ioos:station:TCOON:013:1,2017-11-01T16:36:00Z,27.4847,-97.3181,0.0,1.1,19.0,1.3,'11111222,11111222,11111222' 
TCOON,ioos:station:TCOON:013:1,2017-11-01T16:42:00Z,27.4847,-97.3181,0.0,1.3,5.0,1.5,'11111222,11111222,11111222' 
TCOON,ioos:station:TCOON:013:1,2017-11-01T16:48:00Z,27.4847,-97.3181,0.0,1.7,7.0,1.9,'11111222,11111222,11111222' 
TCOON,ioos:station:TCOON:013:1,2017-11-01T16:54:00Z,27.4847,-97.3181,0.0,1.5,26.0,1.9,'11111222,11111222,11111222' 
TCOON,ioos:station:TCOON:013:1,2017-11-01T17:00:00Z,27.4847,-97.3181,0.0,1.6,17.0,1.9,'11111222,11111222,11111222' 
TCOON,ioos:station:TCOON:013:1,2017-11-01T17:06:00Z,27.4847,-97.3181,0.0,1.3,8.0,2.0,'11111222,11111222,11111222' 
TCOON,ioos:station:TCOON:013:1,2017-11-01T17:12:00Z,27.4847,-97.3181,0.0,1.5,3.0,1.7,'11111222,11111222,11111222' 
TCOON,ioos:station:TCOON:013:1,2017-11-01T17:18:00Z,27.4847,-97.3181,0.0,1.4,12.0,1.9,'1111122,1111122,1111122' 
TCOON,ioos:station:TCOON:013:1,2017-11-01T17:24:00Z,27.4847,-97.3181,0.0,1.4,9.0,1.8,'11111222,11111222,11111222' 
TCOON,ioos:station:TCOON:013:1,2017-11-01T17:30:00Z,27.4847,-97.3181,0.0,1.5,354.0,2.0,'11111222,11111222,11111222' 
TCOON,ioos:station:TCOON:013:1,2017-11-01T17:36:00Z,27.4847,-97.3181,0.0,2.0,0.0,2.3,'11111222,11111222,11111222' 
TCOON,ioos:station:TCOON:013:1,2017-11-01T17:42:00Z,27.4847,-97.3181,0.0,2.4,12.0,2.7,'11111222,11111222,11111222' 
TCOON,ioos:station:TCOON:013:1,2017-11-01T17:48:00Z,27.4847,-97.3181,0.0,1.9,5.0,2.5,'11111222,11111222,11111222' 
TCOON,ioos:station:TCOON:013:1,2017-11-01T17:54:00Z,27.4847,-97.3181,0.0,2.3,22.0,2.5,'11111222,11111222,11111222' 
TCOON,ioos:station:TCOON:013:1,2017-11-01T18:00:00Z,27.4847,-97.3181,0.0,1.9,12.0,2.3,'11111222,11111222,11111222' 
TCOON,ioos:station:TCOON:013:1,2017-11-01T18:06:00Z,27.4847,-97.3181,0.0,1.9,10.0,2.1,'11111222,11111222,11111222' 
TCOON,ioos:station:TCOON:013:1,2017-11-01T18:12:00Z,27.4847,-97.3181,0.0,1.9,23.0,2.1,'11111222,11111222,11111222' 
TCOON,ioos:station:TCOON:013:1,2017-11-01T18:18:00Z,27.4847,-97.3181,0.0,1.9,16.0,2.2,'1111122,1111122,1111122' 
TCOON,ioos:station:TCOON:013:1,2017-11-01T18:24:00Z,27.4847,-97.3181,0.0,2.0,16.0,2.5,'11111222,11111222,11111222' 
TCOON,ioos:station:TCOON:013:1,2017-11-01T18:30:00Z,27.4847,-97.3181,0.0,1.8,18.0,2.2,'11111222,11111222,11111222' 
TCOON,ioos:station:TCOON:013:1,2017-11-01T18:36:00Z,27.4847,-97.3181,0.0,1.6,13.0,2.2,'11111222,11111222,11111222' 
TCOON,ioos:station:TCOON:013:1,2017-11-01T18:42:00Z,27.4847,-97.3181,0.0,1.0,360.0,1.9,'11111222,11144222,11111222' 
TCOON,ioos:station:TCOON:013:1,2017-11-01T18:48:00Z,27.4847,-97.3181,0.0,1.5,5.0,2.1,'11111222,11111222,11111222' 
TCOON,ioos:station:TCOON:013:1,2017-11-01T18:54:00Z,27.4847,-97.3181,0.0,2.3,8.0,2.6,'11111222,11111222,11111222' 
TCOON,ioos:station:TCOON:013:1,2017-11-01T19:00:00Z,27.4847,-97.3181,0.0,1.7,350.0,2.6,'11111222,11111222,11111222' 
TCOON,ioos:station:TCOON:013:1,2017-11-01T19:06:00Z,27.4847,-97.3181,0.0,2.0,5.0,2.1,'11111222,11111222,11111222' 
TCOON,ioos:station:TCOON:013:1,2017-11-01T19:12:00Z,27.4847,-97.3181,0.0,0.8,323.0,2.0,'11111222,11111222,11111222' 
TCOON,ioos:station:TCOON:013:1,2017-11-01T19:18:00Z,27.4847,-97.3181,0.0,0.7,344.0,1.2,'1111122,1111122,1111122' 
TCOON,ioos:station:TCOON:013:1,2017-11-01T19:24:00Z,27.4847,-97.3181,0.0,1.4,9.0,1.8,'11111222,11111222,11111222' 
TCOON,ioos:station:TCOON:013:1,2017-11-01T19:30:00Z,27.4847,-97.3181,0.0,0.7,346.0,1.8,'11111222,11111222,11111222' 
TCOON,ioos:station:TCOON:013:1,2017-11-01T19:36:00Z,27.4847,-97.3181,0.0,1.4,8.0,1.9,'11111222,11111222,11111222' 
TCOON,ioos:station:TCOON:013:1,2017-11-01T19:42:00Z,27.4847,-97.3181,0.0,1.4,9.0,1.9,'11111222,11111222,11111222' 
TCOON,ioos:station:TCOON:013:1,2017-11-01T19:48:00Z,27.4847,-97.3181,0.0,1.2,33.0,1.6,'11111222,11111222,11111222' 
TCOON,ioos:station:TCOON:013:1,2017-11-01T19:54:00Z,27.4847,-97.3181,0.0,1.0,25.0,1.9,'11111222,11111222,11111222' 
TCOON,ioos:station:TCOON:013:1,2017-11-01T20:00:00Z,27.4847,-97.3181,0.0,1.2,22.0,2.4,'11111222,11111222,11111222' 
TCOON,ioos:station:TCOON:013:1,2017-11-01T20:06:00Z,27.4847,-97.3181,0.0,3.7,108.0,4.7,'11111222,11111222,11111222' 
TCOON,ioos:station:TCOON:013:1,2017-11-01T20:12:00Z,27.4847,-97.3181,0.0,3.3,98.0,4.7,'11111222,11111222,11111222' 
TCOON,ioos:station:TCOON:013:1,2017-11-01T20:18:00Z,27.4847,-97.3181,0.0,3.6,93.0,4.8,'1111122,1111122,1111122' 
TCOON,ioos:station:TCOON:013:1,2017-11-01T20:24:00Z,27.4847,-97.3181,0.0,2.6,97.0,4.5,'11111222,11111222,11111222' 